Location: La Brionne
(46.1728°N, 1.7849°E)
Time: 21:14:47
(UTC+00:00)

Cosmos 2123 Rocket - Pass Details

Date: 16 June 2021
Orbit: 961 x 992 km, 82.9° (Epoch: 02 August)

Event Time Altitude Azimuth Distance (km) Brightness Sun altitude
Exits shadow 21:34:04 16° 168° (SSE) 2,308 5.4 -13.6°
Maximum altitude 21:39:02 60° 93° (E) 1,120 4.1 -14.0°
Drops below altitude 10° 21:45:16 10° 15° (NNE) 2,765 7.0 -14.6°
Sets 21:47:49 0° 12° (NNE) 3,719 7.8 -14.8°
